Tracking 29892 objects as of 21-Nov-2024
HD Live streaming from Space Station
objects crossing your sky now

NOAA 16 DEB

Track NOAA 16 DEB now!
10-day predictions


NORAD ID: 41375
Int'l Code: 2000-055JU
Perigee: 668.4 km
Apogee: 693.3 km
Inclination: 98.9 °
Period: 98.2 minutes
Semi major axis: 7051 km
RCS: Unknown
Launch date: September 21, 2000
Source: United States (US)
Launch site: AIR FORCE WESTERN TEST RANGE (AFWTR)

Note: This is SATELLITE DEBRIS
Your satellite tracking list
Your tracking list is empty




NASA's NSSDC Master Catalog

Two Line Element Set (TLE):
1 41375U 00055JU  24325.40543587  .00057074  00000-0  10306-1 0  9996
2 41375  98.9150 128.9972 0017669 322.7902  37.2073 14.66045244456986
Source of the keplerian elements: AFSPC